Time,TemperatureF,DewpointF,PressureIn,WindDirection,WindDirectionDegrees,WindSpeedMPH,WindSpeedGustMPH,Humidity,HourlyPrecipIn,Conditions,Clouds,dailyrainin,SoftwareType,DateUTC
2013-02-18 00:02:00,34.0,24.0,-100.00,SE,140,11.0,16.0,65,0.00,,,-99.99,,2013-02-18 06:02:00,
2013-02-18 00:11:00,34.0,24.0,-100.00,SE,135,12.0,16.0,66,0.00,,,-99.99,,2013-02-18 06:11:00,
2013-02-18 00:21:00,34.0,24.0,-100.00,SE,135,12.0,17.0,66,0.00,,,-99.99,,2013-02-18 06:21:00,
2013-02-18 00:32:00,34.0,24.0,-100.00,SE,145,12.0,17.0,66,0.00,,,-99.99,,2013-02-18 06:32:00,
2013-02-18 00:41:00,34.0,24.0,-100.00,SE,145,12.0,17.0,66,0.00,,,-99.99,,2013-02-18 06:41:00,
2013-02-18 00:51:00,34.0,25.0,-100.00,SE,140,11.0,16.0,67,0.00,,,-99.99,,2013-02-18 06:51:00,
2013-02-18 01:01:00,34.0,25.0,-100.00,SE,140,11.0,16.0,67,0.00,,,-99.99,,2013-02-18 07:01:00,
2013-02-18 01:11:00,34.0,25.0,-100.00,SE,140,11.0,15.0,67,0.00,,,-99.99,,2013-02-18 07:11:00,
2013-02-18 01:21:00,34.0,25.0,-100.00,SE,145,11.0,13.0,68,0.00,,,-99.99,,2013-02-18 07:21:00,
2013-02-18 01:32:00,34.0,25.0,-100.00,SE,140,9.0,13.0,68,0.00,,,-99.99,,2013-02-18 07:32:00,
2013-02-18 01:42:00,34.0,25.0,-100.00,SE,140,9.0,13.0,68,0.00,,,-99.99,,2013-02-18 07:42:00,
2013-02-18 01:51:00,34.0,25.0,-100.00,SE,145,9.0,12.0,69,0.00,,,-99.99,,2013-02-18 07:51:00,
2013-02-18 02:01:00,34.0,25.0,-100.00,SE,145,9.0,12.0,69,0.00,,,-99.99,,2013-02-18 08:01:00,
2013-02-18 02:11:00,34.0,25.0,-100.00,SE,145,9.0,12.0,69,0.00,,,-99.99,,2013-02-18 08:11:00,
2013-02-18 02:21:00,34.0,26.0,-100.00,SE,145,9.0,10.0,70,0.00,,,-99.99,,2013-02-18 08:21:00,
2013-02-18 02:32:00,34.0,26.0,-100.00,SE,140,9.0,11.0,71,0.00,,,-99.99,,2013-02-18 08:32:00,
2013-02-18 02:42:00,34.0,26.0,-100.00,SE,140,9.0,11.0,71,0.00,,,-99.99,,2013-02-18 08:42:00,
2013-02-18 02:52:00,35.0,26.0,-100.00,SSE,150,9.0,11.0,71,0.00,,,-99.99,,2013-02-18 08:52:00,
2013-02-18 03:02:00,35.0,26.0,-100.00,SSE,150,9.0,11.0,71,0.00,,,-99.99,,2013-02-18 09:02:00,
2013-02-18 03:11:00,35.0,26.0,-100.00,SE,145,9.0,11.0,72,0.00,,,-99.99,,2013-02-18 09:11:00,
2013-02-18 03:22:00,34.0,27.0,-100.00,SE,140,8.0,11.0,72,0.00,,,-99.99,,2013-02-18 09:22:00,
2013-02-18 03:32:00,34.0,27.0,-100.00,SE,140,7.0,9.0,73,0.00,,,-99.99,,2013-02-18 09:32:00,
2013-02-18 03:41:00,34.0,27.0,-100.00,SE,140,7.0,9.0,73,0.00,,,-99.99,,2013-02-18 09:41:00,
2013-02-18 03:51:00,34.0,27.0,-100.00,SE,140,6.0,7.0,74,0.00,,,-99.99,,2013-02-18 09:51:00,
2013-02-18 04:01:00,34.0,27.0,-100.00,SE,140,6.0,7.0,74,0.00,,,-99.99,,2013-02-18 10:01:00,
2013-02-18 04:11:00,33.0,26.0,-100.00,SE,140,5.0,7.0,75,0.00,,,-99.99,,2013-02-18 10:11:00,
2013-02-18 04:21:00,33.0,27.0,-100.00,SE,135,6.0,6.0,76,0.00,,,-99.99,,2013-02-18 10:21:00,
2013-02-18 04:31:00,33.0,27.0,-100.00,SE,130,6.0,6.0,77,0.00,,,-99.99,,2013-02-18 10:31:00,
2013-02-18 04:42:00,33.0,27.0,-100.00,SE,130,6.0,6.0,77,0.00,,,-99.99,,2013-02-18 10:42:00,
2013-02-18 04:52:00,32.0,27.0,-100.00,SE,140,7.0,9.0,79,0.00,,,-99.99,,2013-02-18 10:52:00,
2013-02-18 05:01:00,32.0,27.0,-100.00,SE,140,7.0,9.0,79,0.00,,,-99.99,,2013-02-18 11:01:00,
2013-02-18 05:11:00,33.0,27.0,-100.00,SE,145,8.0,9.0,80,0.00,,,-99.99,,2013-02-18 11:11:00,
2013-02-18 05:22:00,33.0,28.0,-100.00,SSE,150,7.0,9.0,80,0.00,,,-99.99,,2013-02-18 11:22:00,
2013-02-18 05:32:00,33.0,27.0,-100.00,WNW,295,3.0,4.0,80,0.00,,,-99.99,,2013-02-18 11:32:00,
2013-02-18 05:42:00,33.0,27.0,-100.00,WNW,295,3.0,4.0,80,0.00,,,-99.99,,2013-02-18 11:42:00,
2013-02-18 05:52:00,33.0,28.0,-100.00,WNW,300,4.0,5.0,81,0.00,,,-99.99,,2013-02-18 11:52:00,
2013-02-18 06:02:00,33.0,28.0,-100.00,WNW,300,4.0,5.0,81,0.00,,,-99.99,,2013-02-18 12:02:00,
2013-02-18 06:11:00,33.0,28.0,-100.00,NW,305,4.0,6.0,81,0.00,,,-99.99,,2013-02-18 12:11:00,
2013-02-18 06:22:00,34.0,29.0,-100.00,WNW,285,3.0,5.0,81,0.00,,,-99.99,,2013-02-18 12:22:00,
2013-02-18 06:32:00,34.0,29.0,-100.00,West,265,3.0,4.0,80,0.00,,,-99.99,,2013-02-18 12:32:00,
2013-02-18 06:42:00,34.0,29.0,-100.00,West,265,3.0,4.0,80,0.00,,,-99.99,,2013-02-18 12:42:00,
2013-02-18 07:02:00,34.0,28.0,-100.00,NNW,330,4.0,5.0,80,0.00,,,-99.99,,2013-02-18 13:02:00,
2013-02-18 07:12:00,33.0,28.0,-100.00,NNW,340,3.0,6.0,80,0.00,,,-99.99,,2013-02-18 13:12:00,
2013-02-18 07:22:00,33.0,27.0,-100.00,SE,145,1.0,3.0,80,0.00,,,-99.99,,2013-02-18 13:22:00,
2013-02-18 07:32:00,32.0,27.0,-100.00,ESE,120,2.0,4.0,82,0.00,,,-99.99,,2013-02-18 13:32:00,
2013-02-18 07:42:00,32.0,27.0,-100.00,ESE,120,2.0,4.0,82,0.00,,,-99.99,,2013-02-18 13:42:00,
2013-02-18 07:52:00,32.0,28.0,-100.00,SW,225,2.0,2.0,84,0.00,,,-99.99,,2013-02-18 13:52:00,
2013-02-18 08:02:00,32.0,28.0,-100.00,SW,225,2.0,2.0,84,0.00,,,-99.99,,2013-02-18 14:02:00,
2013-02-18 08:11:00,34.0,29.0,-100.00,West,265,3.0,6.0,84,0.00,,,-99.99,,2013-02-18 14:11:00,
2013-02-18 08:22:00,34.0,30.0,-100.00,West,265,4.0,6.0,83,0.00,,,-99.99,,2013-02-18 14:22:00,
2013-02-18 08:33:00,35.0,30.0,-100.00,West,270,6.0,7.0,81,0.00,,,-99.99,,2013-02-18 14:33:00,
2013-02-18 08:41:00,35.0,30.0,-100.00,West,270,6.0,7.0,81,0.00,,,-99.99,,2013-02-18 14:41:00,
2013-02-18 08:53:00,35.0,30.0,-100.00,WNW,285,4.0,7.0,80,0.00,,,-99.99,,2013-02-18 14:53:00,
2013-02-18 09:02:00,36.0,30.0,-100.00,WNW,295,7.0,9.0,80,0.00,,,-99.99,,2013-02-18 15:02:00,
2013-02-18 09:11:00,36.0,30.0,-100.00,WNW,295,7.0,9.0,80,0.00,,,-99.99,,2013-02-18 15:11:00,
2013-02-18 09:22:00,36.0,30.0,-100.00,WNW,295,7.0,9.0,80,0.00,,,-99.99,,2013-02-18 15:22:00,
2013-02-18 09:32:00,37.0,32.0,-100.00,NW,315,9.0,14.0,80,0.00,,,-99.99,,2013-02-18 15:32:00,
2013-02-18 09:42:00,37.0,32.0,-100.00,NW,315,9.0,14.0,80,0.00,,,-99.99,,2013-02-18 15:42:00,
2013-02-18 09:53:00,39.0,33.0,-100.00,NW,325,9.0,16.0,78,0.00,,,-99.99,,2013-02-18 15:53:00,
2013-02-18 10:02:00,39.0,33.0,-100.00,NW,325,9.0,16.0,78,0.00,,,-99.99,,2013-02-18 16:02:00,
2013-02-18 10:12:00,39.0,33.0,-100.00,NW,315,11.0,17.0,76,0.00,,,-99.99,,2013-02-18 16:12:00,
2013-02-18 10:22:00,41.0,34.0,-100.00,NW,320,9.0,15.0,75,0.00,,,-99.99,,2013-02-18 16:22:00,
2013-02-18 10:32:00,42.0,34.0,-100.00,NNW,340,11.0,17.0,74,0.00,,,-99.99,,2013-02-18 16:32:00,
2013-02-18 10:42:00,42.0,34.0,-100.00,NNW,340,11.0,17.0,74,0.00,,,-99.99,,2013-02-18 16:42:00,
2013-02-18 10:52:00,43.0,34.0,-100.00,NNW,335,11.0,18.0,71,0.00,,,-99.99,,2013-02-18 16:52:00,
2013-02-18 11:03:00,43.0,34.0,-100.00,NNW,335,11.0,18.0,71,0.00,,,-99.99,,2013-02-18 17:03:00,
2013-02-18 11:12:00,42.0,33.0,-100.00,NW,315,15.0,19.0,70,0.00,,,-99.99,,2013-02-18 17:12:00,
2013-02-18 11:22:00,43.0,34.0,-100.00,NW,315,13.0,23.0,69,0.00,,,-99.99,,2013-02-18 17:22:00,
2013-02-18 11:32:00,42.0,33.0,-100.00,NW,310,16.0,23.0,68,0.00,,,-99.99,,2013-02-18 17:32:00,
2013-02-18 11:42:00,42.0,33.0,-100.00,NW,310,16.0,23.0,68,0.00,,,-99.99,,2013-02-18 17:42:00,
2013-02-18 11:52:00,41.0,32.0,-100.00,NW,320,13.0,26.0,69,0.00,,,-99.99,,2013-02-18 17:52:00,
2013-02-18 12:02:00,41.0,32.0,-100.00,NW,320,13.0,26.0,69,0.00,,,-99.99,,2013-02-18 18:02:00,
2013-02-18 12:12:00,40.0,32.0,-100.00,WNW,300,14.0,23.0,70,0.00,,,-99.99,,2013-02-18 18:12:00,
2013-02-18 12:22:00,40.0,31.0,-100.00,WNW,300,15.0,22.0,71,0.00,,,-99.99,,2013-02-18 18:22:00,
2013-02-18 12:32:00,40.0,32.0,-100.00,NW,325,12.0,23.0,72,0.00,,,-99.99,,2013-02-18 18:32:00,
2013-02-18 12:42:00,40.0,32.0,-100.00,NW,325,12.0,23.0,72,0.00,,,-99.99,,2013-02-18 18:42:00,
2013-02-18 12:52:00,40.0,32.0,-100.00,NW,320,14.0,22.0,73,0.00,,,-99.99,,2013-02-18 18:52:00,
2013-02-18 13:02:00,40.0,32.0,-100.00,NW,320,14.0,22.0,73,0.00,,,-99.99,,2013-02-18 19:02:00,
2013-02-18 13:12:00,39.0,32.0,-100.00,NW,305,13.0,21.0,73,0.00,,,-99.99,,2013-02-18 19:12:00,
2013-02-18 13:22:00,40.0,32.0,-100.00,NW,320,11.0,17.0,73,0.00,,,-99.99,,2013-02-18 19:22:00,
2013-02-18 13:33:00,38.0,31.0,-100.00,NW,305,16.0,31.0,74,0.00,,,-99.99,,2013-02-18 19:33:00,
2013-02-18 13:42:00,38.0,31.0,-100.00,NW,305,16.0,31.0,74,0.00,,,-99.99,,2013-02-18 19:42:00,
2013-02-18 13:52:00,37.0,29.0,-100.00,NW,320,21.0,30.0,74,0.00,,,-99.99,,2013-02-18 19:52:00,
2013-02-18 14:02:00,37.0,29.0,-100.00,NW,320,21.0,30.0,74,0.00,,,-99.99,,2013-02-18 20:02:00,
2013-02-18 14:12:00,35.0,28.0,-100.00,NW,310,21.0,35.0,75,0.00,,,-99.99,,2013-02-18 20:12:00,
2013-02-18 14:22:00,34.0,27.0,-100.00,WNW,300,22.0,30.0,75,0.00,,,-99.99,,2013-02-18 20:22:00,
2013-02-18 14:33:00,31.0,27.0,-100.00,NW,310,20.0,31.0,81,0.01,,,-99.99,,2013-02-18 20:33:00,
2013-02-18 14:42:00,31.0,27.0,-100.00,NW,310,20.0,31.0,81,0.01,,,-99.99,,2013-02-18 20:42:00,
2013-02-18 14:52:00,30.0,27.0,-100.00,NW,305,19.0,28.0,88,0.01,,,-99.99,,2013-02-18 20:52:00,
2013-02-18 15:03:00,30.0,27.0,-100.00,NW,305,19.0,28.0,88,0.01,,,-99.99,,2013-02-18 21:03:00,
2013-02-18 15:12:00,30.0,27.0,-100.00,NW,305,20.0,28.0,89,0.07,,,-99.99,,2013-02-18 21:12:00,
2013-02-18 15:22:00,30.0,27.0,-100.00,WNW,295,17.0,30.0,89,0.01,,,-99.99,,2013-02-18 21:22:00,
2013-02-18 15:32:00,29.0,26.0,-100.00,NW,305,24.0,35.0,87,0.00,,,-99.99,,2013-02-18 21:32:00,
2013-02-18 15:42:00,29.0,26.0,-100.00,NW,305,24.0,35.0,87,0.00,,,-99.99,,2013-02-18 21:42:00,
2013-02-18 15:52:00,29.0,24.0,-100.00,NW,315,22.0,32.0,80,0.00,,,-99.99,,2013-02-18 21:52:00,
2013-02-18 16:02:00,29.0,24.0,-100.00,NW,315,22.0,32.0,80,0.00,,,-99.99,,2013-02-18 22:02:00,
2013-02-18 16:12:00,29.0,24.0,-100.00,NW,305,21.0,32.0,78,0.00,,,-99.99,,2013-02-18 22:12:00,
2013-02-18 16:22:00,29.0,23.0,-100.00,NW,320,22.0,32.0,77,0.00,,,-99.99,,2013-02-18 22:22:00,
2013-02-18 16:33:00,29.0,22.0,-100.00,NW,320,23.0,35.0,74,0.00,,,-99.99,,2013-02-18 22:33:00,
2013-02-18 16:42:00,29.0,22.0,-100.00,NW,320,23.0,35.0,74,0.00,,,-99.99,,2013-02-18 22:42:00,
2013-02-18 16:52:00,28.0,21.0,-100.00,NW,310,22.0,35.0,72,0.00,,,-99.99,,2013-02-18 22:52:00,
2013-02-18 17:02:00,28.0,21.0,-100.00,NW,310,22.0,35.0,72,0.00,,,-99.99,,2013-02-18 23:02:00,
2013-02-18 17:12:00,28.0,20.0,-100.00,WNW,300,18.0,31.0,72,0.00,,,-99.99,,2013-02-18 23:12:00,
2013-02-18 17:22:00,29.0,21.0,-100.00,NW,305,17.0,32.0,72,0.00,,,-99.99,,2013-02-18 23:22:00,
2013-02-18 17:42:00,28.0,19.0,-100.00,NW,315,22.0,39.0,69,0.00,,,-99.99,,2013-02-18 23:42:00,
2013-02-18 17:52:00,27.0,19.0,-100.00,NW,315,19.0,34.0,70,0.00,,,-99.99,,2013-02-18 23:52:00,
2013-02-18 18:02:00,27.0,19.0,-100.00,NW,315,19.0,34.0,70,0.00,,,-99.99,,2013-02-19 00:02:00,
2013-02-18 18:12:00,26.0,18.0,-100.00,NW,315,22.0,40.0,69,0.00,,,-99.99,,2013-02-19 00:12:00,
2013-02-18 18:22:00,26.0,17.0,-100.00,NW,310,19.0,31.0,69,0.00,,,-99.99,,2013-02-19 00:22:00,
2013-02-18 18:34:00,26.0,17.0,-100.00,NW,315,18.0,32.0,68,0.00,,,-99.99,,2013-02-19 00:34:00,
2013-02-18 18:42:00,26.0,17.0,-100.00,NW,315,18.0,32.0,68,0.00,,,-99.99,,2013-02-19 00:42:00,
2013-02-18 18:53:00,25.0,17.0,-100.00,NW,315,24.0,32.0,69,0.00,,,-99.99,,2013-02-19 00:53:00,
2013-02-18 19:03:00,25.0,17.0,-100.00,NW,315,24.0,32.0,69,0.00,,,-99.99,,2013-02-19 01:03:00,
2013-02-18 19:13:00,25.0,16.0,-100.00,WNW,295,24.0,37.0,68,0.00,,,-99.99,,2013-02-19 01:13:00,
2013-02-18 19:23:00,24.0,15.0,-100.00,WNW,300,15.0,30.0,68,0.00,,,-99.99,,2013-02-19 01:23:00,
2013-02-18 19:34:00,23.0,15.0,-100.00,WNW,290,19.0,27.0,68,0.00,,,-99.99,,2013-02-19 01:34:00,
2013-02-18 19:43:00,23.0,15.0,-100.00,WNW,290,19.0,27.0,68,0.00,,,-99.99,,2013-02-19 01:43:00,
2013-02-18 19:53:00,23.0,14.0,-100.00,WNW,300,17.0,29.0,68,0.00,,,-99.99,,2013-02-19 01:53:00,
2013-02-18 20:03:00,23.0,14.0,-100.00,WNW,300,17.0,29.0,68,0.00,,,-99.99,,2013-02-19 02:03:00,
2013-02-18 20:13:00,22.0,13.0,-100.00,NW,320,17.0,33.0,67,0.00,,,-99.99,,2013-02-19 02:13:00,
2013-02-18 20:22:00,22.0,13.0,-100.00,WNW,300,21.0,31.0,67,0.00,,,-99.99,,2013-02-19 02:22:00,
2013-02-18 20:34:00,22.0,14.0,-100.00,NW,310,19.0,28.0,68,0.00,,,-99.99,,2013-02-19 02:34:00,
2013-02-18 20:42:00,22.0,14.0,-100.00,NW,310,19.0,28.0,68,0.00,,,-99.99,,2013-02-19 02:42:00,
2013-02-18 20:53:00,21.0,13.0,-100.00,NW,305,27.0,39.0,70,0.00,,,-99.99,,2013-02-19 02:53:00,
2013-02-18 21:13:00,20.0,12.0,-100.00,WNW,295,21.0,32.0,69,0.00,,,-99.99,,2013-02-19 03:13:00,
2013-02-18 21:33:00,20.0,12.0,-100.00,WNW,295,21.0,32.0,70,0.00,,,-99.99,,2013-02-19 03:33:00,
2013-02-18 21:43:00,20.0,12.0,-100.00,WNW,295,21.0,32.0,70,0.00,,,-99.99,,2013-02-19 03:43:00,
2013-02-18 21:52:00,18.0,10.0,-100.00,NW,310,21.0,32.0,68,0.00,,,-99.99,,2013-02-19 03:52:00,
2013-02-18 22:02:00,18.0,10.0,-100.00,NW,310,21.0,32.0,68,0.00,,,-99.99,,2013-02-19 04:02:00,
2013-02-18 22:13:00,18.0,10.0,-100.00,NW,310,17.0,30.0,69,0.00,,,-99.99,,2013-02-19 04:13:00,
2013-02-18 22:22:00,18.0,10.0,-100.00,WNW,300,20.0,30.0,70,0.00,,,-99.99,,2013-02-19 04:22:00,
2013-02-18 22:33:00,17.0,9.0,-100.00,NW,305,26.0,33.0,70,0.00,,,-99.99,,2013-02-19 04:33:00,
2013-02-18 22:43:00,17.0,9.0,-100.00,NW,305,26.0,33.0,70,0.00,,,-99.99,,2013-02-19 04:43:00,
2013-02-18 22:52:00,17.0,9.0,-100.00,WNW,295,17.0,29.0,70,0.00,,,-99.99,,2013-02-19 04:52:00,
2013-02-18 23:02:00,17.0,9.0,-100.00,WNW,295,17.0,29.0,70,0.00,,,-99.99,,2013-02-19 05:02:00,
2013-02-18 23:12:00,17.0,9.0,-100.00,WNW,295,21.0,29.0,70,0.00,,,-99.99,,2013-02-19 05:12:00,
2013-02-18 23:22:00,17.0,9.0,-100.00,WNW,300,21.0,32.0,71,0.00,,,-99.99,,2013-02-19 05:22:00,
2013-02-18 23:32:00,17.0,9.0,-100.00,WNW,290,22.0,29.0,71,0.00,,,-99.99,,2013-02-19 05:32:00,
2013-02-18 23:43:00,17.0,9.0,-100.00,WNW,290,22.0,29.0,71,0.00,,,-99.99,,2013-02-19 05:43:00,
2013-02-18 23:52:00,17.0,9.0,-100.00,WNW,290,21.0,28.0,71,0.00,,,-99.99,,2013-02-19 05:52:00,